Theta_e
345 345 342 342 342 342 342 341 341 341 342 341 340 341 341 342 344 344 343 344 344 344 343 344 344 344 345 345 345 346 346 346 347 346 344 344 340 339 339 340 344 345
344 343 344 342 343 343 343 342 342 342 342 342 342 341 342 342 341 342 342 342 342 342 344 343 343 344 343 342 343 343 344 345 344 347 346 346 343 344 341 343 343 345
343 342 341 340 339 339 339 342 343 342 341 341 342 342 340 341 341 342 344 342 342 343 346 343 342 342 341 342 342 343 343 343 344 345 346 345 346 344 344 342 343 342
344 343 341 340 340 339 340 341 342 342 342 340 340 340 340 342 343 343 343 343 343 343 342 341 341 341 341 342 341 341 343 343 342 344 343 343 343 344 345 345 344 343
342 342 342 341 340 341 341 341 341 341 341 340 341 341 341 342 342 341 342 342 343 342 340 340 340 340 340 340 340 339 340 339 339 340 339 338 339 342 342 342 343 343
342 342 342 340 341 340 339 339 340 340 340 340 340 340 340 340 341 341 341 341 339 339 340 340 340 339 339 340 341 339 338 336 337 337 336 337 337 338 338 338 338 338
341 342 341 340 340 340 340 340 340 341 340 340 342 341 341 340 340 341 342 342 343 343 343 343 342 340 341 342 341 339 339 339 338 338 337 336 336 337 338 338 336 336
341 340 340 340 338 338 339 339 339 339 340 341 340 340 341 340 342 341 342 342 342 343 344 345 344 342 341 342 341 340 341 341 340 339 338 337 338 336 336 334 335 334
341 340 339 339 338 337 336 334 334 336 338 339 338 338 340 340 340 340 341 343 344 344 345 345 345 344 341 339 340 341 339 339 339 339 337 336 334 334 335 337 337 337
341 341 339 336 334 336 335 334 333 335 336 336 337 337 337 340 341 342 342 343 344 345 345 345 344 343 342 341 341 340 338 336 338 338 337 333 331 332 332 333 333 332
340 339 336 336 335 333 334 333 332 332 334 335 336 336 338 339 340 342 344 345 344 344 344 344 343 343 343 343 342 340 339 338 338 337 334 333 331 330 329 332 334 333
339 338 336 335 335 334 334 335 335 335 334 332 333 332 334 335 337 337 343 343 344 344 344 344 345 345 345 344 341 340 339 338 337 335 333 331 330 329 329 331 333 333
337 336 336 335 335 335 335 334 333 332 331 331 331 331 331 332 335 337 339 344 344 345 344 343 344 344 345 344 342 339 337 336 334 334 332 331 330 328 328 330 331 331
337 336 336 336 336 337 336 335 335 335 335 335 334 331 330 331 332 335 337 341 342 343 344 346 345 345 345 344 342 338 337 335 335 334 332 330 329 328 329 329 329 329
338 337 337 336 336 336 336 336 336 336 335 335 334 334 333 334 336 336 338 340 342 343 345 345 344 343 344 343 338 336 336 334 334 332 331 330 328 327 327 328 328 327
338 338 337 337 336 336 337 337 336 335 333 333 333 332 333 335 338 339 339 339 338 339 343 344 344 344 338 327 328 334 334 334 333 332 332 331 329 325 325 326 326 326
339 338 338 336 337 336 337 338 338 335 334 333 333 334 336 338 339 338 337 337 338 339 341 342 343 343 330 325 324 324 333 334 333 331 331 331 330 326 323 323 323 324
338 338 337 336 336 337 338 339 339 335 334 334 333 333 335 336 335 336 338 339 340 339 339 341 341 336 325 323 324 324 325 334 332 331 331 331 329 326 323 322 322 322
339 337 336 336 337 337 339 340 340 335 333 332 331 333 334 334 335 335 336 338 339 338 337 337 338 331 323 322 323 322 322 327 333 332 331 331 330 329 325 323 323 322
339 337 336 336 337 338 339 340 338 333 333 332 331 333 333 333 334 334 337 338 336 335 336 337 338 329 323 322 320 319 320 324 333 331 331 331 331 330 326 325 324 323
338 337 337 337 338 339 341 339 335 333 333 332 331 331 331 332 333 334 335 335 334 332 332 332 332 326 323 321 319 316 317 321 333 332 333 332 332 331 329 327 325 324
337 337 338 339 339 340 339 336 333 332 332 333 334 332 333 333 334 334 335 336 335 333 331 331 330 322 321 320 318 316 317 331 333 333 334 333 332 331 330 329 328 327
337 336 336 337 337 337 338 335 331 331 331 333 333 332 330 329 330 329 332 334 334 333 330 331 333 326 317 316 315 315 318 334 330 330 333 333 333 332 331 330 328 328
338 337 336 335 336 336 335 333 330 331 332 335 332 330 329 329 328 330 332 333 331 331 329 331 329 325 312 311 310 313 320 334 333 330 332 333 334 334 333 331 330 328
337 337 336 335 335 334 334 332 332 332 333 336 334 330 330 332 330 330 331 333 330 328 330 327 329 325 312 310 310 313 322 337 335 333 333 333 332 334 334 331 330 329
338 338 338 336 335 335 336 335 337 335 334 335 333 330 329 330 330 330 329 329 330 330 328 328 330 332 330 311 310 310 313 335 338 335 332 332 333 334 333 330 331 330
Wind_Speed
1 1 1 1 1 1 2 3 3 4 4 4 4 4 4 5 5 6 5 5 5 5 5 5 5 6 6 6 7 7 7 8 9 8 9 9 9 11 11 12 11 9
1 1 1 1 1 1 2 2 3 4 4 5 4 4 5 5 6 6 6 6 5 5 5 5 5 5 6 6 6 7 7 7 9 7 8 10 10 11 12 14 13 10
2 1 2 2 2 2 3 3 4 4 4 5 5 5 5 5 6 6 6 6 6 6 5 5 6 5 6 7 7 7 7 8 8 8 9 10 9 10 11 12 11 13
2 2 2 2 2 3 3 4 4 4 4 4 5 5 5 6 6 7 7 7 7 7 6 6 6 7 7 7 8 7 8 8 8 8 9 9 10 10 11 10 10 11
2 2 2 3 3 3 4 4 5 5 5 5 5 6 6 6 7 7 7 7 7 8 6 7 7 8 7 7 8 8 8 8 8 8 9 10 11 11 10 10 11 13
3 3 3 3 3 4 4 5 5 5 6 6 5 6 6 7 7 8 8 9 8 9 9 8 8 8 8 8 7 7 7 8 8 10 10 10 11 11 11 12 13 14
4 4 4 4 4 4 5 5 5 5 5 5 5 6 6 7 7 8 9 9 9 9 10 9 9 9 8 7 7 7 7 8 9 9 10 10 11 13 13 14 14 15
4 4 4 4 5 5 6 6 5 5 5 5 6 6 6 7 8 8 8 9 9 10 10 9 9 9 8 7 7 8 9 8 9 11 12 12 13 12 14 14 15 17
5 5 5 6 6 6 6 6 6 5 5 6 6 7 7 7 8 8 9 9 9 9 9 8 9 8 7 7 7 7 9 9 10 11 12 12 14 14 14 13 14 15
6 5 6 6 6 5 6 6 6 6 5 5 6 7 7 8 8 9 9 9 9 9 8 8 9 9 8 7 7 7 8 9 10 10 11 13 14 15 15 14 15 16
6 6 6 6 6 6 6 6 7 7 6 7 7 7 8 8 8 8 9 9 8 8 8 8 9 9 8 7 7 7 8 8 9 9 11 12 13 14 15 15 16 16
7 6 7 7 6 6 6 6 6 7 7 7 7 8 8 8 8 8 8 9 9 8 9 9 9 8 7 7 7 7 7 7 8 9 10 11 12 13 15 15 15 16
7 6 6 6 6 6 6 7 7 8 9 9 9 9 10 10 9 10 9 9 9 9 9 9 8 7 6 6 6 6 6 7 8 9 10 10 11 13 14 15 15 15
7 6 6 6 6 6 6 7 7 7 8 8 9 10 10 10 11 10 9 9 9 8 8 7 7 7 7 6 5 5 6 7 7 8 10 11 12 12 14 14 15 15
6 6 6 6 6 7 7 8 8 8 9 9 9 9 9 10 10 10 10 10 9 8 7 7 6 6 5 3 4 5 6 7 7 9 10 11 12 12 13 14 14 13
7 7 6 6 6 7 7 8 8 8 8 8 9 9 9 9 9 9 9 9 9 8 7 6 5 5 3 4 4 5 6 6 7 8 9 10 11 13 14 14 14 14
7 7 7 8 7 7 8 8 8 8 7 8 9 9 9 8 8 9 9 8 8 8 6 5 5 4 8 7 7 7 6 7 8 9 9 9 9 12 12 15 13 13
8 8 8 8 8 9 9 9 8 8 8 9 9 9 8 8 8 8 8 8 6 6 6 6 6 5 10 9 8 7 6 5 7 8 8 8 9 11 12 11 11 11
8 8 9 9 9 9 9 9 8 8 9 9 9 8 8 8 8 9 8 7 6 6 6 6 7 8 11 9 8 8 7 6 7 8 8 8 8 9 10 9 8 10
8 9 9 9 9 9 9 8 7 9 9 8 8 7 8 8 9 9 8 7 7 7 7 6 8 3 9 8 8 9 7 7 7 9 8 8 8 9 8 8 8 8
8 8 9 9 8 9 8 7 8 8 8 7 7 8 8 8 8 9 8 8 8 7 8 7 5 5 10 9 9 9 8 8 8 8 8 8 7 8 8 8 9 8
8 8 8 8 8 8 8 7 8 7 7 7 7 7 7 7 8 8 9 8 8 8 9 8 7 10 12 12 10 10 9 7 9 8 8 8 8 7 8 9 9 9
7 7 8 8 8 8 8 7 7 7 7 6 6 7 8 8 8 8 7 8 9 9 9 8 8 6 11 11 11 10 7 8 9 8 8 8 8 7 8 10 11 12
6 7 7 7 7 7 7 7 7 7 7 6 7 7 8 9 10 10 11 11 11 10 11 10 10 5 10 11 11 11 8 8 9 9 9 9 8 6 6 8 12 15
6 6 7 7 7 8 7 7 6 6 6 6 8 9 8 8 9 7 8 8 13 13 10 10 12 9 9 10 11 10 7 7 9 9 9 9 9 7 6 8 10 10
6 6 6 7 8 7 7 3 2 2 3 2 3 5 5 6 6 7 9 7 10 13 14 12 10 11 6 10 9 9 9 7 7 8 9 10 10 8 9 9 9 11
Wind_Direction
273 296 315 325 335 344 328 315 311 304 295 294 294 309 308 311 309 307 312 312 313 310 315 313 305 299 300 295 293 290 283 279 277 276 275 271 256 250 269 270 269 274
261 272 266 299 278 251 276 283 292 289 288 286 291 300 300 298 301 299 303 307 307 311 304 311 312 304 303 302 302 295 289 284 289 288 282 277 281 278 272 274 273 260
260 264 276 281 304 317 309 302 292 296 290 293 293 284 294 296 298 295 292 294 297 297 303 306 301 304 300 299 302 298 294 296 291 293 290 287 283 280 276 272 268 262
234 258 276 272 272 297 306 306 306 304 297 285 286 297 299 298 298 295 295 291 291 296 301 298 305 307 305 302 303 300 303 301 300 294 293 292 286 282 280 270 263 268
248 250 249 265 278 285 294 299 311 313 311 306 290 285 290 293 296 297 297 296 296 296 300 304 303 305 303 302 305 306 305 303 305 307 304 298 293 289 286 282 272 267
235 236 240 252 266 281 290 299 301 303 306 306 300 296 294 293 293 296 300 299 298 301 303 303 310 312 312 309 306 307 311 309 314 314 308 305 304 300 297 292 286 278
244 237 245 254 262 275 280 283 284 285 293 303 304 295 296 295 293 295 294 293 295 294 295 302 311 314 314 313 308 307 309 306 306 308 309 306 306 301 298 294 290 284
248 253 257 262 269 277 277 273 277 281 286 293 294 298 293 295 295 298 294 294 291 289 290 296 301 303 306 308 308 311 313 316 314 314 314 312 313 308 303 301 295 292
244 252 253 257 266 273 278 285 284 292 288 288 296 301 299 292 292 291 290 289 288 285 284 285 286 291 299 301 303 309 314 312 311 313 315 317 316 313 308 302 296 292
243 247 257 264 267 272 276 288 293 284 295 298 293 294 298 296 289 286 283 282 281 283 280 279 282 287 294 298 304 307 308 308 312 316 317 318 317 314 310 306 301 298
244 249 252 254 261 273 285 290 309 327 320 307 298 295 294 293 290 285 281 274 275 279 283 283 281 284 291 296 303 309 310 310 312 314 316 318 316 313 309 305 301 298
244 250 255 258 264 272 281 298 301 291 293 294 306 304 297 288 287 287 282 278 276 276 277 278 277 279 283 290 300 307 307 310 313 311 312 316 315 312 309 308 306 306
247 250 254 261 262 268 282 289 295 308 314 316 308 304 302 299 298 294 287 281 277 277 278 280 279 278 277 278 289 298 307 310 308 307 310 314 313 310 309 309 312 314
248 250 252 256 265 272 276 282 291 296 298 299 300 297 298 302 300 299 295 286 284 282 283 281 277 269 267 272 281 294 301 304 309 312 315 314 311 311 314 315 317 319
249 250 251 255 258 264 276 283 290 293 292 292 293 294 295 297 299 298 292 287 283 283 281 280 273 269 266 274 286 291 303 312 313 314 312 313 314 318 321 323 323 323
242 244 247 253 263 274 283 284 289 294 294 295 298 296 294 294 296 292 288 288 288 291 288 276 267 263 128 136 256 293 309 310 310 310 309 310 315 326 327 328 325 326
240 242 247 257 265 272 277 283 291 293 290 295 299 295 293 293 289 289 293 296 300 299 293 280 261 246 150 195 222 247 280 307 307 304 307 304 315 329 330 331 330 325
242 246 254 264 270 272 276 285 287 291 293 296 298 295 292 293 294 293 291 291 292 297 291 285 280 174 176 197 229 243 257 292 295 300 305 304 313 328 332 333 325 320
246 254 261 268 273 277 279 281 289 294 298 301 301 301 295 291 295 292 294 293 286 284 286 285 290 171 189 205 224 237 247 262 281 292 295 300 306 312 325 326 320 317
251 259 264 270 273 277 278 279 289 298 303 304 301 296 293 294 296 299 295 288 288 288 284 288 287 124 205 202 221 231 239 250 271 283 287 295 299 304 318 314 306 306
255 263 268 273 273 273 273 279 293 294 299 305 307 306 301 300 301 300 296 289 287 287 293 293 316 172 228 214 223 236 241 246 266 276 281 287 295 299 299 296 298 289
258 268 272 274 273 271 270 276 282 290 298 301 301 306 304 300 296 298 297 291 290 294 294 293 305 192 216 216 219 229 235 250 269 281 283 287 294 299 292 293 288 281
264 273 279 277 271 265 265 271 282 286 286 293 296 303 305 305 312 308 308 300 295 294 291 288 297 209 204 211 214 218 228 261 283 286 287 286 291 288 291 297 296 294
263 270 273 274 265 265 262 268 278 277 290 304 304 310 312 325 323 337 334 324 316 313 301 302 305 284 191 206 213 211 230 272 286 291 292 295 293 279 277 289 289 282
264 263 263 264 265 263 266 273 287 316 342 338 333 327 335 329 332 334 323 326 319 312 316 312 295 277 179 207 213 220 218 259 275 291 297 298 302 291 284 291 292 290
252 251 251 259 263 261 262 280 73 229 258 281 282 288 297 310 315 324 321 336 324 312 312 303 275 278 245 199 212 219 220 257 279 289 294 299 300 297 299 299 297 300